Regional Weather Roundup
Issued by NWS Austin/San Antonio, TX

Home | Current Version | Previous Version | Text Only | Print | Product List | Glossary On
Versions: 1 2 3 4 5 6 7 8 9 10 11 12 13 14 15 16 17 18 19 20 21 22 23 24 25 26 27 28 29 30 31 32 33 34 35 36 37 38 39 40 41 42 43 44 45 46 47 48 49 50
924
ASUS44 KEWX 220102
RWREWX
SOUTH TEXAS REGIONAL WEATHER ROUNDUP
NATIONAL WEATHER SERVICE AUSTIN/SAN ANTONIO TX
800 PM CDT MON OCT 21 2019

NOTE: "FAIR" INDICATED FEW OR NO CLOUDS BELOW 12,000 FEET WITH NO
SIGNIFICANT WEATHER AND/OR OBSTRUCTIONS TO VISIBILITY.

* - THESE STATIONS ARE NOT NWS OR FAA STATIONS...AND ARE NOT SUBJECT
    TO NWS AND FAA QUALITY CONTROL.

TXZ171-172-183>190-220200-
TEXAS HILL COUNTRY AND EDWARDS PLATEAU

CITY           SKY/WX    TMP DP  RH WIND       PRES   REMARKS
JUNCTION       CLEAR     62  44  51 CALM      29.98R
*LLANO         CLEAR     66  37  34 CALM      29.99R
BURNET         CLEAR     64  39  39 N3        29.99R
*HORSESHOE BAY CLEAR     57  46  67 CALM      29.98R
*KERRVILLE     CLEAR     63  38  39 CALM      29.97R
*FREDERICKSBRG CLEAR     60  45  57 CALM      29.98R
*ROCKSPRINGS   CLEAR     66  32  28 NE5       30.03R
*BOERNE        CLEAR     59  45  58 CALM      29.99R
*CASTROVILLE   CLEAR     71  37  28 CALM      29.96R
HONDO          CLEAR     72  37  28 E7        29.94R
*UVALDE          N/A     72  40  31 NE7       29.93R HAZE
DEL RIO        CLEAR     75  31  19 CALM      29.91R
LAUGHLIN AFB   CLEAR     72  37  28 NW3       29.92R
SPOFFORD       CLEAR     70  36  28 N7        29.86R
*EAGLE PASS    CLEAR     73  36  25 NW3       29.92R
CARRIZO SPRGS  CLEAR     70  50  49 CALM      29.90R
*FAITH RANCH   CLEAR     77  41  27 E6        29.89R
$$

TXZ173-191>194-202-209-217>225-228-220200-
CENTRAL AND SOUTH CENTRAL TEXAS

CITY           SKY/WX    TMP DP  RH WIND       PRES   REMARKS
GEORGETOWN     CLEAR     64  41  42 N5        29.99R
AUSTIN/BERGSTM CLEAR     64  42  44 NE7       29.96R
AUSTIN/MABRY   CLEAR     69  36  29 CALM      29.97R
*AUSTIN/EXEC   CLEAR     66  37  34 CALM      29.97R
*LAGO VISTA    CLEAR     64  37  37 NE7       29.98R
SAN MARCOS     CLEAR     61  42  49 NE7       29.97R
NEW BRAUNFELS  CLEAR     67  40  37 NE7       29.95R
RANDOLPH AFB   CLEAR     68  40  35 NE6       29.95R
SEGUIN         CLEAR     65  41  40 NE6       29.99R
KELLY FIELD    CLEAR     69  41  36 NE7       29.93R
SAN ANTONIO    CLEAR     71  38  29 NE6       29.95R
STINSON FIELD  CLEAR     71  39  31 NE5       29.92R
PLEASANTON     CLEAR     69  40  33 NE3       29.94R
*LA GRANGE     CLEAR     66  52  60 NW3       29.94R
*GIDDINGS      CLEAR     71  41  34 N3        29.97R
*GONZALES      CLEAR     68  45  42 NE3       29.95R
$$

TXZ163>164-176>182-195>201-210>213-226-227-235-220200-
SOUTHEAST TEXAS

CITY           SKY/WX    TMP DP  RH WIND       PRES   REMARKS
COLLEGE STN    CLEAR     68  42  38 N6        29.96R
*BRYAN         CLEAR     68  43  40 N3        29.98R
*CALDWELL      CLEAR     64  44  48 N5        29.98R
*CROCKETT      CLEAR     59  50  72 CALM      29.98R
*BRENHAM       CLEAR     68  45  44 N6        29.97R
HUNTSVILLE     CLEAR     64  50  60 N3        29.96R
CONROE         CLEAR     59  57  93 NW3       29.95R
HOUSTON BUSH   PTCLDY    72  53  51 N3        29.93R
HOUSTON HOBBY  FAIR      73  56  54 N8        29.92R
*HOUSTON SW AP FAIR      69  57  65 N3        29.93R
PEARLAND       FAIR      72  58  61 N5        29.93R
HOUSTON HOOKS  FAIR      62  53  72 N3        29.94R
ELLINGTON FLD  PTCLDY    73  57  56 CALM      29.90R
SUGAR LAND     FAIR      68  57  68 N5        29.93R
*HOUSTON EXEC  FAIR      64  54  68 N5        29.96R
*CLEVELAND MUN FAIR      63  63 100 CALM      29.93R
*WHARTON       CLEAR     64  52  63 N5        29.94R
*COLUMBUS      FAIR      61  44  54 CALM      29.95R
*EAGLE LAKE    CLEAR     69  50  51 N6        29.94R
$$

TXZ214>216-236>238-220200-
THE UPPER TEXAS COAST

CITY           SKY/WX    TMP DP  RH WIND       PRES   REMARKS
*ORANGE        FAIR      67  67 100 CALM      29.95R
PORT ARTHUR    FAIR      69  64  84 N3        29.92R
GALVESTON      FAIR      73  67  81 NE8       29.92R
ANGLETON       FAIR      68  65  90 CALM      29.92R
*BAY CITY      CLEAR     71  63  74 N5        29.92R
PALACIOS         N/A     69  59  70 N7        29.91R
$$

TXZ229>234-239>247-220200-
TEXAS COASTAL BEND AND RIO GRANDE PLAINS

CITY           SKY/WX    TMP DP  RH WIND       PRES   REMARKS
VICTORIA       CLEAR     67  55  65 N7        29.92R
*BEEVILLE      CLEAR     73  45  36 NE5       29.90R
ROCKPORT       CLEAR     77  60  55 NE7       29.90R
*PORT ARANSAS  CLEAR     77  61  56 N13       29.91R
*PORT LAVACA   CLEAR     75  59  57 NE6       29.90R
*INGLESIDE     CLEAR     76  61  59 E6        29.90R
CORPUS CHRISTI MOCLDY    78  56  46 NE10      29.89R
CORPUS NAS     MOCLDY    78  64  61 NE13      29.89R
*ROBSTOWN      CLEAR     80  48  33 NE7       29.89R
ALICE          CLEAR     75  45  34 NE8       29.89R
KINGSVILLE NAS MOCLDY    78  64  61 E7        29.89R
COTULLA        CLEAR     75  38  26 E7        29.91R
LAREDO         CLEAR     81  38  21 NE9       29.89R
$$

TXZ248>255-220200-
DEEP SOUTH TEXAS

CITY           SKY/WX    TMP DP  RH WIND       PRES   REMARKS
BROWNSVILLE    FAIR      78  70  76 N10       29.85R
PORT ISABEL    FAIR      78  69  73 NE15      29.85R
HARLINGEN      CLEAR     75  69  81 NE12      29.86R
*HEBBRONVILLE  CLEAR     79  46  30 CALM      29.90R
MCALLEN        CLEAR     79  64  60 E9        29.87R
*WESLACO       PTCLDY    75  67  76 E8        29.86
FALFURRIAS     CLEAR     81  52  36 NE6       29.88R
EDINBURG       FAIR      75  65  70 E8        29.88R
*ZAPATA        NOT AVBL
$$

TXZ213>215-236>238-242>244-246-247-251-254-255-220200-
CMAN STATIONS

STATION/POSITION TIME  TEMP    WIND        PRES    WAVE
                       AIR SEA DIR/SP/G            HT/PER
                 (UTC) (F)     (DEG/KT/KT) (MB)    (FT/S)
SABINE PASS      0018   71 78   40/  5/  8 1014.0
SEA RIM ST PARK  0000   71      20/  5/  6 1012.0
NORTH JETTY/GLS  0018   74 76   50/  9/ 11 1010.9
EAGLE POINT      0018   75 76   10/  6/ 10 1011.3
MORGANS POINT    0018   74 78   10/ 10/ 12 1012.1
PORT O`CONNOR    0018   78 80   20/ 14/ 16 1011.6
PORT ARANSAS     0000   79 79   20/ 15/ 16 1010.9
MALAQUITE BEACH  0018   79 81   20/ 15/ 18 1010.9
BAFFIN BAY       0018   78 81   30/ 12/ 13 1011.4
PORT ISABEL      0018   79 81   10/ 14/ 17 1010.6
$$




USA.gov is the U.S. government's official web portal to all federal, state and local government web resources and services.